Weather History for Chicopee, MA

Change the Weather History Date:

Saturday, October 5, 2013

  Actual Average Record
Temperature  
Mean Temperature 65 °F -  
Max Temperature 72 °F 63 °F 84 °F (2007)
Min Temperature 58 °F 40 °F 26 °F (1996)
Growing Degree Days 15 (Base 50)    
Moisture  
Dew Point 61 °F    
Average Humidity 94    
Maximum Humidity 100    
Minimum Humidity 70    
Precipitation  
Precipitation 0.00 in - - ()
Sea Level Pressure  
Sea Level Pressure 30.08 in    
Wind  
Wind Speed 3 mph (North)    
Max Wind Speed 6 mph    
Max Gust Speed -    
Visibility 10 miles    
Events Rain    
Averages and records for this station are not official NWS values.
T = Trace of Precipitation, MM = Missing Value Source: NWS Daily Summary

Daily Weather History Graph

Daily Weather History Graph

Search for Another Location

Airport:

Trip Planner

Search our weather history database for the weather conditions in past years. The results will help you decide how hot, cold, wet, or windy it might be!

Date:

Astronomy

Oct. 05, 2013 Rise Set
Actual Time 6:51 AM EDT 6:24 PM EDT
Civil Twilight 6:23 AM EDT 6:52 PM EDT
Nautical Twilight 5:51 AM EDT 7:24 PM EDT
Astronomical Twilight 5:18 AM EDT 7:57 PM EDT
Moon 7:29 AM EDT (10/5) 6:39 PM EDT (10/5)
Length of Visible Light 12h 28m
Length of Day
11h 32m
New Moon, 0% of the Moon is Illuminated
Oct 5
New Moon
Oct 11
First Quarter
Oct 18
Full
Oct 26
Last Quarter
Nov 3
New

Hourly Weather History & Observations

Time (EDT) Temp. Dew Point Humidity Pressure Visibility Wind Dir Wind Speed Gust Speed Precip Events Conditions
12:17 AM 59.0 °F 59.0 °F 100% 30.07 in 10.0 mi NNE 2.3 mph - N/A   Mostly Cloudy
12:33 AM 59.0 °F 59.0 °F 100% 30.06 in 10.0 mi NNE 2.3 mph - N/A   Overcast
12:58 AM 58.6 °F 58.3 °F 99% 30.08 in 10.0 mi North 3.5 mph - N/A   Overcast
1:16 AM 59.0 °F 59.0 °F 100% 30.06 in 10.0 mi North 4.6 mph - N/A   Overcast
1:22 AM 59.0 °F 59.0 °F 100% 30.06 in 10.0 mi NNE 3.5 mph - N/A   Overcast
1:44 AM 59.0 °F 59.0 °F 100% 30.06 in 10.0 mi NW 2.3 mph - N/A   Overcast
1:53 AM 59.0 °F 59.0 °F 100% 30.06 in 10.0 mi North 2.3 mph - N/A   Mostly Cloudy
1:58 AM 58.8 °F 58.5 °F 99% 30.08 in 10.0 mi NNW 1.2 mph - N/A   Mostly Cloudy
2:07 AM 59.0 °F 59.0 °F 100% 30.06 in 10.0 mi NNW 2.3 mph - N/A Rain Light Rain
2:09 AM 59.0 °F 59.0 °F 100% 30.06 in 10.0 mi North 1.2 mph - N/A Rain Light Rain
2:24 AM 59.0 °F 59.0 °F 100% 30.07 in 10.0 mi West 2.3 mph - N/A Rain Light Rain
2:32 AM 59.0 °F 59.0 °F 100% 30.06 in 10.0 mi NW 2.3 mph - N/A   Overcast
2:45 AM 59.0 °F 59.0 °F 100% 30.06 in 10.0 mi NW 3.5 mph - N/A   Overcast
2:53 AM 59.0 °F 59.0 °F 100% 30.06 in 10.0 mi NNW 2.3 mph - N/A   Light Drizzle
2:54 AM 59.0 °F 59.0 °F 100% 30.06 in 10.0 mi NNW 2.3 mph - N/A   Light Drizzle
2:58 AM 58.6 °F 58.3 °F 99% 30.08 in 10.0 mi NNW 2.3 mph - 0.00 in Rain Light Rain
3:08 AM 59.0 °F 59.0 °F 100% 30.06 in 10.0 mi North 3.5 mph - N/A   Overcast
3:58 AM 58.5 °F 58.1 °F 99% 30.08 in 10.0 mi NE 3.5 mph - 0.00 in   Overcast
4:58 AM 58.5 °F 58.1 °F 99% 30.09 in 10.0 mi Calm Calm - N/A   Overcast
5:22 AM 59.0 °F 59.0 °F 100% 30.08 in 10.0 mi NNW 2.3 mph - N/A   Overcast
5:58 AM 58.3 °F 58.1 °F 99% 30.10 in 10.0 mi NNE 1.2 mph - N/A   Overcast
6:58 AM 58.5 °F 58.1 °F 99% 30.10 in 10.0 mi NNW 2.3 mph - N/A   Overcast
7:24 AM 59.0 °F 59.0 °F 100% 30.09 in 10.0 mi WNW 2.3 mph - N/A   Overcast
7:58 AM 59.0 °F 58.6 °F 99% 30.11 in 10.0 mi North 3.5 mph - N/A   Overcast
8:58 AM 60.1 °F 59.7 °F 99% 30.12 in 10.0 mi North 1.2 mph - N/A   Overcast
9:58 AM 62.1 °F 61.5 °F 98% 30.13 in 10.0 mi Variable 1.2 mph - N/A   Overcast
9:59 AM 62.6 °F 62.6 °F 100% 30.11 in 10.0 mi Variable 2.3 mph - N/A   Overcast
10:35 AM 64.4 °F 60.8 °F 88% 30.11 in 10.0 mi Variable 2.3 mph - N/A   Overcast
10:58 AM 64.4 °F 61.0 °F 89% 30.12 in 10.0 mi Calm Calm - N/A   Overcast
11:08 AM 66.2 °F 60.8 °F 83% 30.10 in 10.0 mi North 4.6 mph - N/A   Overcast
11:18 AM 66.2 °F 60.8 °F 83% 30.10 in 10.0 mi NNW 1.2 mph - N/A   Overcast
11:30 AM 66.2 °F 60.8 °F 83% 30.10 in 10.0 mi WNW 1.2 mph - N/A   Mostly Cloudy
11:58 AM 67.5 °F 60.6 °F 79% 30.11 in 10.0 mi Variable 2.3 mph - N/A   Mostly Cloudy
12:37 PM 69.8 °F 60.8 °F 73% 30.08 in 10.0 mi Variable 2.3 mph - N/A   Mostly Cloudy
12:58 PM 69.6 °F 60.3 °F 72% 30.09 in 10.0 mi Variable 2.3 mph - N/A   Mostly Cloudy
1:58 PM 70.3 °F 61.2 °F 73% 30.07 in 10.0 mi South 4.6 mph - N/A   Mostly Cloudy
2:58 PM 70.0 °F 61.9 °F 75% 30.07 in 10.0 mi ESE 2.3 mph - N/A   Mostly Cloudy
3:58 PM 72.3 °F 61.9 °F 70% 30.07 in 10.0 mi Calm Calm - N/A   Mostly Cloudy
4:58 PM 70.0 °F 62.4 °F 77% 30.07 in 10.0 mi NE 5.8 mph - N/A   Mostly Cloudy
5:58 PM 68.9 °F 62.8 °F 81% 30.08 in 10.0 mi NNE 4.6 mph - N/A   Mostly Cloudy
6:29 PM 66.2 °F 62.6 °F 88% 30.07 in 10.0 mi North 3.5 mph - N/A Rain Light Rain
6:49 PM 66.2 °F 64.4 °F 94% 30.07 in 8.0 mi North 2.3 mph - N/A Rain Light Rain
6:58 PM 65.8 °F 64.2 °F 94% 30.09 in 8.0 mi North 3.5 mph - N/A Rain Light Rain
7:07 PM 66.2 °F 64.4 °F 94% 30.07 in 9.0 mi NNE 3.5 mph - N/A   Overcast
7:45 PM 64.4 °F 64.4 °F 100% 30.08 in 9.0 mi NNE 4.6 mph - N/A   Overcast
7:58 PM 64.4 °F 63.7 °F 98% 30.10 in 10.0 mi North 3.5 mph - 0.00 in   Mostly Cloudy
8:45 PM 64.4 °F 64.4 °F 100% 30.08 in 9.0 mi North 4.6 mph - N/A   Overcast
8:58 PM 63.7 °F 63.3 °F 99% 30.10 in 9.0 mi NNE 4.6 mph - N/A   Overcast
9:58 PM 63.3 °F 63.0 °F 99% 30.12 in 10.0 mi North 3.5 mph - N/A   Overcast
10:53 PM 62.6 °F 62.6 °F 100% 30.10 in 10.0 mi North 4.6 mph - N/A   Overcast
10:58 PM 63.0 °F 62.8 °F 99% 30.12 in 10.0 mi North 4.6 mph - N/A   Overcast
11:41 PM 62.6 °F 62.6 °F 100% 30.10 in 10.0 mi NNE 4.6 mph - N/A   Overcast
11:58 PM 62.8 °F 62.4 °F 99% 30.12 in 10.0 mi North 5.8 mph - N/A   Overcast